Costa Luminosa — ICGU — position and weather

sailwx.info

Track history (hours):
 
Tides and Currents Weather Stations Pressure Air Temp Water Temp Dewpoint Dewpoint Depression Visibility Wind Speed Wind Dir Waves Ship Positions

Costa Luminosa

Last reported at 2019-Jul-20 13:27 UTC. Time now 2019-Jul-20 13:56 UTC.
Position N 45°27' E 012°15'.

Length 294 m; draft 8.1 m.

Type: Passenger vessel. MMSI: 247257900.

Date/timePositionNaut miles runAvg speedWind from/ knotsBaromVisibWave heightAir tempDewpointWater temp
2019-Jul-20 13:27N 45°27' E 012°15'0 0.0
2019-Jul-20 12:57N 45°27' E 012°15'0 0.0
2019-Jul-20 12:27N 45°27' E 012°15'0 0.0
2019-Jul-20 11:57N 45°27' E 012°15'0 0.0
2019-Jul-20 11:21N 45°27' E 012°15'0 0.0
2019-Jul-20 10:57N 45°27' E 012°15'0 0.0
2019-Jul-20 10:27N 45°27' E 012°15'0 0.0
2019-Jul-20 09:57N 45°27' E 012°15'0 0.0
2019-Jul-20 09:27N 45°27' E 012°15'0 0.0
2019-Jul-20 08:57N 45°27' E 012°15'0 0.0
2019-Jul-20 08:30N 45°27' E 012°15'1 1.1
2019-Jul-20 08:00N 45°27' E 012°16'3 5.0
2019-Jul-20 07:30N 45°24' E 012°16'3 7.0
2019-Jul-20 07:00N 45°21' E 012°16'3 6.9
2019-Jul-20 06:30N 45°20' E 012°20'3 5.5
2019-Jul-20 06:00N 45°19' E 012°24'4 7.2
2019-Jul-20 05:30N 45°18' E 012°29'713.7
2019-Jul-20 05:00N 45°14' E 012°37'715.0
2019-Jul-20 04:31N 45°09' E 012°45'815.0
2019-Jul-20 04:00N 45°03' E 012°51'815.2
2019-Jul-20 03:31N 44°56' E 012°55'815.0
2019-Jul-20 03:01N 44°49' E 012°59'917.1
2019-Jul-20 02:31N 44°41' E 013°04'918.1
2019-Jul-20 02:01N 44°33' E 013°08'918.1
2019-Jul-20 01:31N 44°24' E 013°12'917.7
2019-Jul-20 01:00N 44°16' E 013°18'917.8
2019-Jul-20 00:30N 44°11' E 013°28'918.0
2019-Jul-20 00:01N 44°05' E 013°38'918.3
2019-Jul-19 23:30N 43°60' E 013°48'918.3
2019-Jul-19 23:01N 43°55' E 013°58'918.3
2019-Jul-19 22:31N 43°50' E 014°09'918.4
2019-Jul-19 22:00N 43°44' E 014°19'918.4
2019-Jul-19 21:30N 43°38' E 014°28'918.3
2019-Jul-19 21:00N 43°30' E 014°36'918.4
2019-Jul-19 20:31N 43°23' E 014°44'1418.4
2019-Jul-19 19:43N 43°12' E 014°56'417.8
2019-Jul-19 19:30N 43°09' E 014°59'1418.6
2019-Jul-19 18:45N 42°57' E 015°11'418.4
2019-Jul-19 18:30N 42°55' E 015°15'918.6
2019-Jul-19 18:00N 42°49' E 015°25'918.4
2019-Jul-19 17:31N 42°43' E 015°35'918.3
2019-Jul-19 17:01N 42°39' E 015°46'918.3
2019-Jul-19 16:30N 42°33' E 015°55'6118.9
2019-Jul-19 13:16N 41°40' E 016°38'619.4
2019-Jul-19 12:58N 41°35' E 016°40'28 9.9
2019-Jul-19 10:08N 41°08' E 016°52'0 0.0
2019-Jul-19 09:50N 41°08' E 016°52'0 0.0
2019-Jul-19 09:29N 41°08' E 016°52'0 0.0
2019-Jul-19 08:59N 41°08' E 016°52'0 0.0
2019-Jul-19 08:29N 41°08' E 016°52'43910.7
2019-Jul-17 15:34N 37°12' E 024°49'119.4
2019-Jul-17 15:30N 37°13' E 024°51'1020.1
2019-Jul-17 15:00N 37°19' E 025°01'1019.4
2019-Jul-17 14:30N 37°26' E 025°09'815.1
2019-Jul-17 14:00N 37°28' E 025°19'1 1.1
2019-Jul-17 13:30N 37°27' E 025°19'0 0.0
2019-Jul-17 13:00N 37°27' E 025°19'0 0.0
2019-Jul-17 12:27N 37°27' E 025°19'0 0.0
2019-Jul-17 12:00N 37°27' E 025°19'0 0.0
2019-Jul-17 11:27N 37°27' E 025°19'0 0.0
2019-Jul-17 11:00N 37°27' E 025°19'0 0.0
2019-Jul-17 10:30N 37°27' E 025°19'0 0.0
2019-Jul-17 09:54N 37°27' E 025°19'0 0.0
2019-Jul-17 09:30N 37°27' E 025°19'0 0.0
2019-Jul-17 08:57N 37°27' E 025°19'0 0.0
2019-Jul-17 08:30N 37°27' E 025°19'0 0.0
2019-Jul-17 07:51N 37°27' E 025°19'0 0.0
2019-Jul-17 07:24N 37°27' E 025°19'0 0.0
2019-Jul-17 07:00N 37°27' E 025°19'0 0.0
2019-Jul-17 06:30N 37°27' E 025°19'0 0.0
2019-Jul-17 05:57N 37°27' E 025°19'0 0.0
2019-Jul-17 05:27N 37°27' E 025°19'0 0.0
2019-Jul-17 04:48N 37°27' E 025°19'0 0.0
2019-Jul-17 04:21N 37°27' E 025°19'0 0.0
2019-Jul-17 04:00N 37°27' E 025°19'0 0.1
2019-Jul-17 03:30N 37°27' E 025°19'3 6.9
2019-Jul-17 03:01N 37°28' E 025°15'815.9
2019-Jul-17 02:31N 37°23' E 025°07'917.1
2019-Jul-17 02:01N 37°15' E 025°03'917.1
2019-Jul-17 01:31N 37°07' E 024°59'  
2019-Jul-14 02:04N 44°07' E 013°21'119.0
2019-Jul-14 02:00N 44°08' E 013°19'918.1
2019-Jul-14 01:30N 44°15' E 013°11'919.1
2019-Jul-14 01:00N 44°24' E 013°07'1318.8
2019-Jul-14 00:20N 44°36' E 013°01'618.8
2019-Jul-14 00:00N 44°41' E 012°58'1019.1
2019-Jul-13 23:30N 44°50' E 012°53'1019.1
2019-Jul-13 23:00N 44°59' E 012°48'918.6
2019-Jul-13 22:30N 45°07' E 012°41'917.7
2019-Jul-13 22:00N 45°12' E 012°31'816.3
2019-Jul-13 21:30N 45°20' E 012°30'510.5
2019-Jul-13 21:00N 45°25' E 012°27'3 5.9
2019-Jul-13 20:31N 45°26' E 012°23'2 4.0
2019-Jul-13 20:01N 45°26' E 012°20'1 1.9
2019-Jul-13 19:29N 45°26' E 012°19'0 0.0
2019-Jul-13 18:59N 45°26' E 012°19'0 0.0
2019-Jul-13 18:29N 45°26' E 012°19'0 0.0
2019-Jul-13 17:59N 45°26' E 012°19'0 0.0
2019-Jul-13 17:29N 45°26' E 012°19'0 0.0
2019-Jul-13 16:59N 45°26' E 012°19'0 0.0
2019-Jul-13 16:29N 45°26' E 012°19'0 0.0
2019-Jul-13 15:59N 45°26' E 012°19'0 0.0
2019-Jul-13 15:29N 45°26' E 012°19'0 0.0
2019-Jul-13 14:59N 45°26' E 012°19'0 0.0
2019-Jul-13 14:29N 45°26' E 012°19'0 0.0
2019-Jul-13 13:59N 45°26' E 012°19'0 0.0
2019-Jul-13 13:29N 45°26' E 012°19'0 0.0
2019-Jul-13 12:59N 45°26' E 012°19'0 0.0
2019-Jul-13 12:29N 45°26' E 012°19'0 0.0
2019-Jul-13 11:59N 45°26' E 012°19'0 0.0
2019-Jul-13 11:29N 45°26' E 012°19'0 0.0
2019-Jul-13 10:59N 45°26' E 012°19'0 0.0
2019-Jul-13 10:31N 45°26' E 012°19'0 0.6
2019-Jul-13 10:01N 45°26' E 012°19'2 4.1
2019-Jul-13 09:31N 45°26' E 012°21'2 4.7
2019-Jul-13 09:01N 45°26' E 012°25'4 7.8
2019-Jul-13 08:31N 45°24' E 012°30'0 0.7
2019-Jul-13 07:59N 45°24' E 012°30'0 0.1
2019-Jul-13 07:29N 45°24' E 012°30'1 1.5
2019-Jul-13 07:00N 45°23' E 012°31'3 6.5
2019-Jul-13 06:31N 45°20' E 012°32'510.3
2019-Jul-13 06:00N 45°15' E 012°34'713.2
2019-Jul-13 05:31N 45°11' E 012°42'713.0
2019-Jul-13 05:00N 45°07' E 012°49'815.2
2019-Jul-13 04:30N 45°00' E 012°53'815.7
2019-Jul-13 04:00N 44°53' E 012°57'918.9
2019-Jul-13 03:30N 44°44' E 013°02'918.8
2019-Jul-13 03:00N 44°35' E 013°07'918.5
2019-Jul-13 02:30N 44°27' E 013°11'918.4
2019-Jul-13 02:00N 44°18' E 013°16'1118.5
2019-Jul-13 01:24N 44°11' E 013°28'818.4
2019-Jul-13 01:00N 44°07' E 013°36'2118.3
2019-Jul-12 23:50N 43°54' E 013°60'20811.1
2019-Jul-12 05:10N 41°09' E 016°51'1 5.5
2019-Jul-12 04:59N 41°09' E 016°50'813.6
2019-Jul-12 04:23N 41°10' E 017°01'717.9
2019-Jul-12 03:58N 41°08' E 017°10'40112.8
2019-Jul-10 20:43N 36°25' E 023°14'618.6
2019-Jul-10 20:24N 36°27' E 023°20'819.0
2019-Jul-10 20:00N 36°31' E 023°28'918.3
2019-Jul-10 19:30N 36°36' E 023°38'918.3
2019-Jul-10 19:00N 36°41' E 023°47'1718.2
2019-Jul-10 18:06N 36°50' E 024°05'1018.4
2019-Jul-10 17:32N 36°55' E 024°16'118.7
2019-Jul-10 17:30N 36°56' E 024°16'1018.7
2019-Jul-10 16:58N 37°01' E 024°27'2119.2
2019-Jul-10 15:52N 37°12' E 024°49'719.3
2019-Jul-10 15:31N 37°16' E 024°57'1019.0
2019-Jul-10 15:00N 37°22' E 025°06'917.6
2019-Jul-10 14:30N 37°28' E 025°14'4 7.1
2019-Jul-10 13:58N 37°28' E 025°19'  
Track history (hours):
 
Tides and Currents Weather Stations Pressure Air Temp Water Temp Dewpoint Dewpoint Depression Visibility Wind Speed Wind Dir Waves Ship Positions

Costa Luminosa

Last reported at 2019-Jul-20 13:27 UTC. Time now 2019-Jul-20 13:56 UTC.
Position N 45°27' E 012°15'.

Length 294 m; draft 8.1 m.

Type: Passenger vessel. MMSI: 247257900.

Date/timePositionNaut miles runAvg speedWind from/ knotsBaromVisibWave heightAir tempDewpointWater temp
2019-Jul-20 13:27N 45°27' E 012°15'0 0.0
2019-Jul-20 12:57N 45°27' E 012°15'0 0.0
2019-Jul-20 12:27N 45°27' E 012°15'0 0.0
2019-Jul-20 11:57N 45°27' E 012°15'0 0.0
2019-Jul-20 11:21N 45°27' E 012°15'0 0.0
2019-Jul-20 10:57N 45°27' E 012°15'0 0.0
2019-Jul-20 10:27N 45°27' E 012°15'0 0.0
2019-Jul-20 09:57N 45°27' E 012°15'0 0.0
2019-Jul-20 09:27N 45°27' E 012°15'0 0.0
2019-Jul-20 08:57N 45°27' E 012°15'0 0.0
2019-Jul-20 08:30N 45°27' E 012°15'1 1.1
2019-Jul-20 08:00N 45°27' E 012°16'3 5.0
2019-Jul-20 07:30N 45°24' E 012°16'3 7.0
2019-Jul-20 07:00N 45°21' E 012°16'3 6.9
2019-Jul-20 06:30N 45°20' E 012°20'3 5.5
2019-Jul-20 06:00N 45°19' E 012°24'4 7.2
2019-Jul-20 05:30N 45°18' E 012°29'713.7
2019-Jul-20 05:00N 45°14' E 012°37'715.0
2019-Jul-20 04:31N 45°09' E 012°45'815.0
2019-Jul-20 04:00N 45°03' E 012°51'815.2
2019-Jul-20 03:31N 44°56' E 012°55'815.0
2019-Jul-20 03:01N 44°49' E 012°59'917.1
2019-Jul-20 02:31N 44°41' E 013°04'918.1
2019-Jul-20 02:01N 44°33' E 013°08'918.1
2019-Jul-20 01:31N 44°24' E 013°12'917.7
2019-Jul-20 01:00N 44°16' E 013°18'917.8
2019-Jul-20 00:30N 44°11' E 013°28'918.0
2019-Jul-20 00:01N 44°05' E 013°38'918.3
2019-Jul-19 23:30N 43°60' E 013°48'918.3
2019-Jul-19 23:01N 43°55' E 013°58'918.3
2019-Jul-19 22:31N 43°50' E 014°09'918.4
2019-Jul-19 22:00N 43°44' E 014°19'918.4
2019-Jul-19 21:30N 43°38' E 014°28'918.3
2019-Jul-19 21:00N 43°30' E 014°36'918.4
2019-Jul-19 20:31N 43°23' E 014°44'1418.4
2019-Jul-19 19:43N 43°12' E 014°56'417.8
2019-Jul-19 19:30N 43°09' E 014°59'1418.6
2019-Jul-19 18:45N 42°57' E 015°11'418.4
2019-Jul-19 18:30N 42°55' E 015°15'918.6
2019-Jul-19 18:00N 42°49' E 015°25'918.4
2019-Jul-19 17:31N 42°43' E 015°35'918.3
2019-Jul-19 17:01N 42°39' E 015°46'918.3
2019-Jul-19 16:30N 42°33' E 015°55'6118.9
2019-Jul-19 13:16N 41°40' E 016°38'619.4
2019-Jul-19 12:58N 41°35' E 016°40'28 9.9
2019-Jul-19 10:08N 41°08' E 016°52'0 0.0
2019-Jul-19 09:50N 41°08' E 016°52'0 0.0
2019-Jul-19 09:29N 41°08' E 016°52'0 0.0
2019-Jul-19 08:59N 41°08' E 016°52'0 0.0
2019-Jul-19 08:29N 41°08' E 016°52'43910.7
2019-Jul-17 15:34N 37°12' E 024°49'119.4
2019-Jul-17 15:30N 37°13' E 024°51'1020.1
2019-Jul-17 15:00N 37°19' E 025°01'1019.4
2019-Jul-17 14:30N 37°26' E 025°09'815.1
2019-Jul-17 14:00N 37°28' E 025°19'1 1.1
2019-Jul-17 13:30N 37°27' E 025°19'0 0.0
2019-Jul-17 13:00N 37°27' E 025°19'0 0.0
2019-Jul-17 12:27N 37°27' E 025°19'0 0.0
2019-Jul-17 12:00N 37°27' E 025°19'0 0.0
2019-Jul-17 11:27N 37°27' E 025°19'0 0.0
2019-Jul-17 11:00N 37°27' E 025°19'0 0.0
2019-Jul-17 10:30N 37°27' E 025°19'0 0.0
2019-Jul-17 09:54N 37°27' E 025°19'0 0.0
2019-Jul-17 09:30N 37°27' E 025°19'0 0.0
2019-Jul-17 08:57N 37°27' E 025°19'0 0.0
2019-Jul-17 08:30N 37°27' E 025°19'0 0.0
2019-Jul-17 07:51N 37°27' E 025°19'0 0.0
2019-Jul-17 07:24N 37°27' E 025°19'0 0.0
2019-Jul-17 07:00N 37°27' E 025°19'0 0.0
2019-Jul-17 06:30N 37°27' E 025°19'0 0.0
2019-Jul-17 05:57N 37°27' E 025°19'0 0.0
2019-Jul-17 05:27N 37°27' E 025°19'0 0.0
2019-Jul-17 04:48N 37°27' E 025°19'0 0.0
2019-Jul-17 04:21N 37°27' E 025°19'0 0.0
2019-Jul-17 04:00N 37°27' E 025°19'0 0.1
2019-Jul-17 03:30N 37°27' E 025°19'3 6.9
2019-Jul-17 03:01N 37°28' E 025°15'815.9
2019-Jul-17 02:31N 37°23' E 025°07'917.1
2019-Jul-17 02:01N 37°15' E 025°03'917.1
2019-Jul-17 01:31N 37°07' E 024°59'  
2019-Jul-14 02:04N 44°07' E 013°21'119.0
2019-Jul-14 02:00N 44°08' E 013°19'918.1
2019-Jul-14 01:30N 44°15' E 013°11'919.1
2019-Jul-14 01:00N 44°24' E 013°07'1318.8
2019-Jul-14 00:20N 44°36' E 013°01'618.8
2019-Jul-14 00:00N 44°41' E 012°58'1019.1
2019-Jul-13 23:30N 44°50' E 012°53'1019.1
2019-Jul-13 23:00N 44°59' E 012°48'918.6
2019-Jul-13 22:30N 45°07' E 012°41'917.7
2019-Jul-13 22:00N 45°12' E 012°31'816.3
2019-Jul-13 21:30N 45°20' E 012°30'510.5
2019-Jul-13 21:00N 45°25' E 012°27'3 5.9
2019-Jul-13 20:31N 45°26' E 012°23'2 4.0
2019-Jul-13 20:01N 45°26' E 012°20'1 1.9
2019-Jul-13 19:29N 45°26' E 012°19'0 0.0
2019-Jul-13 18:59N 45°26' E 012°19'0 0.0
2019-Jul-13 18:29N 45°26' E 012°19'0 0.0
2019-Jul-13 17:59N 45°26' E 012°19'0 0.0
2019-Jul-13 17:29N 45°26' E 012°19'0 0.0
2019-Jul-13 16:59N 45°26' E 012°19'0 0.0
2019-Jul-13 16:29N 45°26' E 012°19'0 0.0
2019-Jul-13 15:59N 45°26' E 012°19'0 0.0
2019-Jul-13 15:29N 45°26' E 012°19'0 0.0
2019-Jul-13 14:59N 45°26' E 012°19'0 0.0
2019-Jul-13 14:29N 45°26' E 012°19'0 0.0
2019-Jul-13 13:59N 45°26' E 012°19'0 0.0
2019-Jul-13 13:29N 45°26' E 012°19'0 0.0
2019-Jul-13 12:59N 45°26' E 012°19'0 0.0
2019-Jul-13 12:29N 45°26' E 012°19'0 0.0
2019-Jul-13 11:59N 45°26' E 012°19'0 0.0
2019-Jul-13 11:29N 45°26' E 012°19'0 0.0
2019-Jul-13 10:59N 45°26' E 012°19'0 0.0
2019-Jul-13 10:31N 45°26' E 012°19'0 0.6
2019-Jul-13 10:01N 45°26' E 012°19'2 4.1
2019-Jul-13 09:31N 45°26' E 012°21'2 4.7
2019-Jul-13 09:01N 45°26' E 012°25'4 7.8
2019-Jul-13 08:31N 45°24' E 012°30'0 0.7
2019-Jul-13 07:59N 45°24' E 012°30'0 0.1
2019-Jul-13 07:29N 45°24' E 012°30'1 1.5
2019-Jul-13 07:00N 45°23' E 012°31'3 6.5
2019-Jul-13 06:31N 45°20' E 012°32'510.3
2019-Jul-13 06:00N 45°15' E 012°34'713.2
2019-Jul-13 05:31N 45°11' E 012°42'713.0
2019-Jul-13 05:00N 45°07' E 012°49'815.2
2019-Jul-13 04:30N 45°00' E 012°53'815.7
2019-Jul-13 04:00N 44°53' E 012°57'918.9
2019-Jul-13 03:30N 44°44' E 013°02'918.8
2019-Jul-13 03:00N 44°35' E 013°07'918.5
2019-Jul-13 02:30N 44°27' E 013°11'918.4
2019-Jul-13 02:00N 44°18' E 013°16'1118.5
2019-Jul-13 01:24N 44°11' E 013°28'818.4
2019-Jul-13 01:00N 44°07' E 013°36'2118.3
2019-Jul-12 23:50N 43°54' E 013°60'20811.1
2019-Jul-12 05:10N 41°09' E 016°51'1 5.5
2019-Jul-12 04:59N 41°09' E 016°50'813.6
2019-Jul-12 04:23N 41°10' E 017°01'717.9
2019-Jul-12 03:58N 41°08' E 017°10'40112.8
2019-Jul-10 20:43N 36°25' E 023°14'618.6
2019-Jul-10 20:24N 36°27' E 023°20'819.0
2019-Jul-10 20:00N 36°31' E 023°28'918.3
2019-Jul-10 19:30N 36°36' E 023°38'918.3
2019-Jul-10 19:00N 36°41' E 023°47'1718.2
2019-Jul-10 18:06N 36°50' E 024°05'1018.4
2019-Jul-10 17:32N 36°55' E 024°16'118.7
2019-Jul-10 17:30N 36°56' E 024°16'1018.7
2019-Jul-10 16:58N 37°01' E 024°27'2119.2
2019-Jul-10 15:52N 37°12' E 024°49'719.3
2019-Jul-10 15:31N 37°16' E 024°57'1019.0
2019-Jul-10 15:00N 37°22' E 025°06'917.6
2019-Jul-10 14:30N 37°28' E 025°14'4 7.1
2019-Jul-10 13:58N 37°28' E 025°19'  

Dump ship's entire track history